Voltar ao catálogo

CZ-3B DEB

AtivoHEO
NORAD 42458·DEBRIS·🇨🇳 China

Lançado Sep 4, 2010 de Xichang Satellite Launch Center

Loading…

Próximas Passagens (próximas 24 horas)

TLE

AtualizadoSource: Space-Track

Época: Sep 13, 2026, 20:59 UTC

1 42458U 10042Z   26256.87448042  .00000017  00000-0  19322-2 0  9995
2 42458  29.4803 229.7127 7512433 265.4787  14.2977  1.81318839 78080

Acompanhe CZ-3B DEB em tempo real com AllMySat

Download on the App Store